Regional Weather Roundup
Issued by NWS Little Rock, AR

Home | Current Version | Previous Version | Text Only | Print | Product List | Glossary Off
Versions: 1 2 3 4 5 6 7 8 9 10 11 12 13 14 15 16 17 18 19 20 21 22 23 24 25 26 27 28 29 30 31 32 33 34 35 36 37 38 39 40 41 42 43 44 45 46 47 48 49 50

000
ASUS44 KLZK 221405
RWRLZK

WEATHER ROUNDUP FOR ARKANSAS
NATIONAL WEATHER SERVICE LITTLE ROCK AR
900 AM CDT FRI AUG 22 2014

NOTE: "FAIR" INDICATES FEW OR NO CLOUDS BELOW 12,000 FEET WITH NO
SIGNIFICANT WEATHER AND/OR OBSTRUCTIONS TO VISIBILITY.

ARZ001-003-010-029-221500-
NORTHWEST ARKANSAS

CITY           SKY/WX    TMP DP  RH WIND       PRES   REMARKS
FAYETTEVILLE   MOSUNNY   81  70  69 S15       30.06S
FORT SMITH     SUNNY     80  74  81 E3        30.04S HX  85
HARRISON       SUNNY     83  70  64 VRB3      30.07R HX  87
BENTONVILLE    SUNNY     81  70  69 SW12G17   30.06S
ROGERS         SUNNY     82  69  64 S13       30.07R HX  85
SILOAM SPGS    SUNNY     81  66  61 S10       30.06S
HIGHFILL       SUNNY     81  70  69 S14       30.05S
SPRINGDALE     MOSUNNY   82  70  65 SW12G21   30.08S HX  86
$$

ARZ004-005-016-221500-
NORTH CENTRAL ARKANSAS

CITY           SKY/WX    TMP DP  RH WIND       PRES   REMARKS
BATESVILLE     SUNNY     82  73  74 SW7       30.05S HX  88
FLIPPIN        SUNNY     81  70  69 CALM      30.05S
MTN HOME       SUNNY     81  72  74 S6        30.05R HX  85
$$

ARZ040-041-221500-
WEST CENTRAL ARKANSAS

CITY           SKY/WX    TMP DP  RH WIND       PRES   REMARKS
MENA           PTSUNNY   81  73  78 CALM      30.10S HX  85
MOUNT IDA      SUNNY     82  73  74 VRB3      30.06S HX  87
$$

ARZ009-017-025-026-028-221500-
NORTHEAST ARKANSAS

CITY           SKY/WX    TMP DP  RH WIND       PRES   REMARKS
CORNING        FAIR      82  75  78 S9        30.05R HX  89
JONESBORO      SUNNY     81  74  79 SW10      30.06S HX  86
NEWPORT        SUNNY     81  76  84 S15       30.06F HX  87
WALNUT RIDGE   SUNNY     81  73  78 S12       30.04S HX  85
BLYTHEVILLE    SUNNY     81  76  84 SW10G18   30.07S HX  87
$$

ARZ022-023-033-042-044-221500-
CENTRAL ARKANSAS

CITY           SKY/WX    TMP DP  RH WIND       PRES   REMARKS
LITTLE ROCK    MOSUNNY   81  73  76 SW6       30.08R HX  86
N LITTLE ROCK  MOSUNNY   80  76  85 SW6       30.08R HX  86
JACKSONVILLE   SUNNY     82  75  79 W6        30.08R HX  87
SEARCY           N/A     81  76  84 CALM        N/A  HX  87
HOT SPRINGS    MOSUNNY   81  74  79 W7        30.09S HX  86
RUSSELLVILLE   SUNNY     82  74  76 S3        30.06S HX  88
CLINTON        FAIR      79  73  83 CALM      30.07S HAZE
$$

ARZ036-221500-
EAST ARKANSAS

CITY           SKY/WX    TMP DP  RH WIND       PRES   REMARKS
WEST MEMPHIS     N/A     81  76  84 SW7       30.08S HX  87
$$

ARZ050-053-066-070-073-221500-
SOUTHWEST ARKANSAS

CITY           SKY/WX    TMP DP  RH WIND       PRES   REMARKS
ARKADELPHIA    FAIR      81  77  88 SW7       30.09S HX  88
CAMDEN         SUNNY     79  73  83 W7        30.09S
TEXARKANA      MOSUNNY   79  74  84 SW6       30.10R
EL DORADO      MOSUNNY   78  75  90 SW6       30.11R
DE QUEEN       SUNNY     80  74  81 S5        30.06S HX  85
$$

ARZ056-057-069-221500-
SOUTHEAST ARKANSAS

CITY           SKY/WX    TMP DP  RH WIND       PRES   REMARKS
PINE BLUFF     SUNNY     79  73  82 SW8       30.09R
STUTTGART      SUNNY     81  73  78 SW8       30.09S HX  85
MONTICELLO     SUNNY     80  73  79 W8        30.09S

$$




USA.gov is the U.S. government's official web portal to all federal, state and local government web resources and services.